Theta_e
347 354 364 362 362 362 362 362 361 361 361 361 362 363 364 364 364 364 363 363 362 361 360 360 359 359 358 359 359 360 361 360 360 362 363 363 364 362 363 363 363 359 362
351 356 365 364 363 362 362 361 361 362 361 360 361 361 362 363 364 365 365 363 364 363 361 362 362 361 360 360 358 358 360 359 360 362 362 363 363 363 363 361 363 361 362
352 356 360 366 363 362 361 360 362 363 363 363 362 360 361 361 362 362 362 361 362 361 361 362 361 360 359 358 360 357 357 359 360 360 360 349 351 362 361 363 362 364 363
353 356 358 367 365 360 359 359 363 363 362 363 363 363 362 362 362 361 362 362 361 359 358 358 357 357 357 357 357 357 358 359 361 356 344 342 346 360 361 363 361 363 363
352 356 359 366 365 360 360 361 363 363 363 363 363 362 362 362 362 361 361 360 358 356 355 353 351 350 350 351 352 353 355 355 356 359 345 343 341 354 361 361 361 362 363
351 354 361 366 364 362 361 363 363 363 363 362 362 362 363 362 361 359 358 357 356 355 354 352 352 353 354 355 356 354 353 353 354 350 351 345 338 345 358 362 362 362 361
349 354 360 366 364 361 363 363 363 363 363 363 362 362 362 360 358 356 355 354 354 355 355 355 356 357 358 359 360 360 359 358 351 347 348 348 346 350 356 362 363 363 363
350 355 359 364 364 362 363 362 363 363 363 363 362 361 359 357 356 356 356 357 357 358 359 360 360 361 362 362 362 362 362 361 355 351 349 347 350 356 358 360 364 364 363
351 355 357 358 359 364 363 363 364 362 361 361 359 358 358 357 357 357 358 359 360 361 362 363 364 364 365 365 365 365 364 364 357 355 354 350 354 358 361 362 361 365 363
349 354 355 356 356 357 357 364 363 361 359 359 359 359 359 359 360 360 363 364 363 364 365 366 366 366 367 367 367 366 365 365 358 357 355 355 359 360 362 361 363 365 365
348 351 352 353 352 355 355 356 361 361 361 361 360 360 359 353 351 356 360 364 366 366 367 368 367 368 371 367 367 367 366 358 358 357 357 360 363 363 363 363 363 364 364
344 349 351 352 351 352 358 355 354 354 354 352 353 352 352 352 352 356 359 363 366 367 366 368 368 371 370 362 359 362 360 359 358 357 357 362 364 364 365 364 364 363 363
345 347 350 350 350 351 354 351 351 352 350 350 349 350 349 351 351 352 352 354 357 363 359 360 357 358 356 358 356 354 353 353 358 359 359 364 365 365 366 365 365 364 363
344 346 348 349 349 349 351 347 350 350 349 348 349 348 346 346 347 350 351 353 355 357 356 353 349 349 348 355 353 353 351 350 352 356 357 363 365 366 367 367 365 364 362
343 345 346 347 347 348 344 343 345 347 349 347 346 346 346 344 345 351 354 353 356 356 356 355 350 347 346 347 352 355 355 354 356 356 355 362 366 366 367 364 365 363 363
343 343 345 345 345 344 344 342 344 345 346 344 344 345 346 346 347 350 350 350 352 355 355 353 351 348 348 354 351 354 354 357 357 357 355 356 368 366 365 364 364 364 363
341 342 341 344 345 342 342 342 344 345 345 344 345 347 348 349 350 350 349 350 352 358 353 353 351 349 351 352 349 350 354 356 355 353 351 349 359 366 364 363 364 362 362
340 339 341 344 343 342 341 342 344 346 345 344 345 347 349 350 351 350 350 350 354 353 353 355 348 344 345 345 344 345 349 351 350 353 350 351 353 357 361 364 365 362 363
339 339 339 341 341 341 341 343 345 346 345 343 344 344 347 350 351 350 353 353 354 351 351 350 345 345 342 344 344 344 343 346 346 353 355 354 353 355 354 359 363 363 362
339 339 339 340 341 341 344 345 345 345 343 342 343 344 346 350 352 351 355 355 355 352 351 344 342 345 348 345 351 349 345 341 343 345 349 350 347 352 352 353 354 355 363
338 338 339 339 341 343 344 345 343 343 342 342 343 345 346 347 352 353 355 352 353 350 348 346 344 342 344 347 339 337 337 338 340 341 345 344 343 347 353 352 352 353 352
335 338 342 342 342 344 346 347 344 343 342 341 341 343 345 347 352 354 351 351 351 347 346 344 342 343 344 343 337 333 329 332 337 340 339 342 342 344 350 350 352 352 351
335 337 341 343 342 344 345 343 341 342 342 340 340 341 345 351 354 352 351 350 350 346 341 340 338 342 340 342 340 335 327 324 326 331 334 337 340 342 342 345 348 351 350
336 338 341 343 343 344 347 345 340 339 338 339 340 342 344 350 354 354 352 350 348 346 345 343 341 340 342 339 341 345 339 333 323 324 331 333 336 338 338 340 344 349 351
337 338 340 342 344 346 347 346 343 336 337 338 340 342 343 344 352 355 354 350 350 349 347 343 339 335 334 337 340 338 336 332 331 328 327 329 337 340 339 339 340 345 353
336 339 340 341 344 346 347 346 343 340 338 337 337 340 342 342 344 349 351 351 353 351 349 347 343 341 341 343 345 342 337 333 332 332 332 332 332 339 342 343 344 348 349
Wind_Speed
7 7 14 15 15 15 14 14 14 14 14 15 14 14 15 15 15 14 13 12 11 9 8 7 6 5 5 5 4 5 6 5 6 6 7 7 8 8 9 9 10 8 12
15 12 15 14 16 15 14 14 13 13 14 14 14 13 13 13 12 12 12 10 10 9 7 7 6 6 5 4 4 4 5 5 6 6 6 6 7 8 8 6 8 8 12
15 13 14 15 17 16 15 13 12 12 12 12 13 13 12 11 10 9 9 9 8 7 7 6 5 5 4 3 3 3 4 4 6 6 6 2 1 5 5 8 9 10 11
13 11 11 16 16 16 15 13 12 11 11 11 11 11 11 10 9 8 7 7 6 6 5 5 4 3 3 2 2 2 2 2 5 6 3 1 2 4 3 10 10 9 11
11 8 9 17 17 16 14 13 12 11 11 11 11 11 10 9 8 7 6 5 4 4 4 3 3 3 4 3 2 2 2 1 1 3 2 2 3 2 5 6 8 9 10
9 7 11 17 17 16 15 14 13 12 11 11 11 10 10 9 8 7 5 5 5 5 5 5 5 5 6 5 4 5 5 3 2 1 1 1 4 5 3 8 9 10 10
8 6 10 15 14 14 14 13 12 11 11 11 10 10 9 8 7 6 6 7 7 7 8 7 7 7 7 7 7 7 6 6 3 4 3 4 5 8 7 9 10 11 11
11 9 9 15 15 14 14 13 12 11 11 10 10 9 9 8 8 7 8 8 9 9 9 9 8 9 9 9 8 9 8 8 5 4 5 5 8 9 12 9 10 11 12
12 9 9 9 13 16 15 14 13 12 12 11 11 10 9 9 9 9 9 10 11 11 11 11 11 10 11 11 10 9 9 10 5 4 5 4 10 12 13 12 11 12 13
10 9 8 7 9 7 7 14 14 13 13 12 11 11 10 10 10 10 10 10 12 12 12 13 12 11 11 11 11 10 10 10 5 4 4 4 8 8 10 10 11 13 13
8 6 5 6 6 5 5 8 13 15 14 13 11 12 10 3 4 7 9 12 14 15 14 13 11 10 11 11 10 10 10 3 4 3 3 8 10 11 11 12 10 11 12
12 9 7 6 6 5 7 5 5 5 4 4 4 5 3 3 4 7 10 14 15 14 9 10 9 10 10 3 3 5 2 4 4 4 4 10 10 12 13 13 11 11 10
14 9 11 8 6 7 7 4 2 2 2 3 5 5 4 4 3 3 3 4 4 10 3 4 3 4 5 3 3 4 4 4 3 4 6 9 10 11 12 12 13 10 12
14 15 11 10 8 7 6 4 5 3 3 3 4 5 4 3 4 4 4 5 4 4 4 3 2 4 5 3 3 5 5 4 3 4 5 12 12 12 10 11 11 10 12
14 14 14 12 11 9 7 4 4 5 5 5 4 5 4 4 5 4 5 4 4 3 3 3 4 4 3 4 4 5 5 6 7 3 3 10 11 11 9 11 10 11 12
15 14 14 15 13 11 10 8 7 5 7 4 4 6 6 6 5 4 4 4 3 3 4 4 4 2 4 4 5 6 6 4 5 4 2 4 10 9 8 9 10 11 12
15 16 16 16 14 12 13 9 6 7 6 5 7 7 8 7 7 6 4 4 3 1 5 4 2 3 4 4 7 3 2 3 4 4 3 3 3 7 7 4 8 11 12
16 16 16 14 15 14 12 9 7 6 6 6 6 5 8 7 7 5 4 4 1 2 2 2 3 1 3 4 2 4 3 1 2 3 3 4 2 3 5 6 8 9 10
18 17 16 16 16 16 13 9 8 7 7 5 5 4 6 6 6 6 4 4 4 2 2 3 2 3 3 3 3 3 2 1 3 3 3 4 4 4 3 4 6 9 10
18 17 18 15 16 14 9 7 4 3 4 4 4 4 6 5 7 5 4 4 3 2 1 2 2 2 2 2 3 3 3 3 2 3 2 2 2 3 4 4 3 2 8
15 15 18 17 16 11 6 7 5 8 4 4 5 7 6 5 6 6 4 4 3 4 4 3 2 4 3 3 2 2 3 4 5 3 2 2 5 2 2 4 3 3 3
16 16 17 18 16 14 11 9 4 4 3 2 2 4 5 6 6 6 8 5 5 4 4 4 2 1 1 4 3 0 3 4 3 4 3 3 5 2 2 1 2 4 4
17 17 17 18 17 15 15 5 3 4 2 2 2 3 4 7 6 7 7 5 5 4 4 4 4 5 3 3 5 3 1 4 3 1 3 4 4 1 2 3 3 4 4
19 15 16 16 15 14 12 10 8 6 6 5 4 4 5 6 7 7 7 7 5 4 6 5 5 4 4 4 2 4 1 3 2 5 3 2 3 5 4 4 3 4 6
14 14 13 14 13 13 13 13 10 5 5 3 3 5 5 5 7 8 8 7 7 5 6 6 5 5 4 3 3 3 1 2 2 3 3 3 2 2 3 4 4 5 7
11 13 13 14 14 12 13 13 13 12 8 5 5 4 5 3 4 6 5 6 6 6 7 5 6 7 6 4 3 4 4 4 4 3 3 2 2 2 2 3 4 4 4
Wind_Direction
183 178 163 152 143 142 139 137 133 128 125 125 128 130 130 134 138 140 141 143 141 142 142 130 125 116 107 116 128 139 136 132 126 124 123 125 128 135 139 115 140 135 146
150 163 162 158 148 147 145 144 141 138 135 135 140 140 137 140 141 143 142 145 143 147 141 136 140 130 119 123 123 135 135 135 138 138 138 142 143 148 157 149 138 145 146
152 156 162 167 154 153 151 147 148 144 140 144 146 145 145 145 146 141 146 149 147 147 143 138 140 133 131 125 113 121 129 132 132 124 123 98 58 174 177 166 159 152 152
150 156 165 163 158 157 156 155 156 149 144 148 149 148 147 147 149 153 153 151 149 151 154 150 156 154 155 143 126 123 147 119 138 132 115 90 277 179 215 171 168 167 160
150 153 165 165 160 161 162 166 163 159 159 156 153 153 149 152 155 160 161 165 169 174 183 192 209 210 214 203 204 221 245 239 153 159 153 266 267 228 184 185 173 181 169
146 142 177 165 166 168 170 172 171 166 169 165 163 162 161 161 166 175 187 199 210 224 231 234 242 255 258 248 240 241 246 257 252 158 211 164 171 229 228 196 190 191 187
147 149 169 171 171 174 178 177 176 175 176 173 176 175 176 180 193 200 214 227 235 245 251 254 255 255 256 258 255 252 250 248 222 194 217 207 212 218 206 221 207 201 200
157 162 170 174 176 179 183 183 184 183 186 185 188 190 196 201 216 229 239 247 249 248 252 253 254 256 257 255 253 254 255 255 253 216 213 214 229 235 224 210 227 213 208
164 167 172 177 183 187 189 187 188 195 199 197 200 208 217 223 230 239 246 251 252 252 252 252 250 247 256 258 258 260 258 259 247 240 251 217 224 238 231 222 228 223 220
171 177 183 180 184 183 187 195 199 204 210 209 213 220 232 240 246 251 252 252 260 259 260 256 254 256 254 256 258 261 266 255 251 254 253 261 271 277 274 249 232 225 229
181 186 179 183 185 182 185 203 204 210 216 217 224 232 241 245 258 272 273 264 261 256 254 257 261 255 253 260 263 256 256 237 246 243 238 256 265 263 271 253 234 223 224
189 193 185 189 189 176 196 202 207 221 224 220 228 236 262 260 253 259 262 268 273 277 271 269 263 255 259 237 242 273 247 225 229 237 241 247 253 258 256 243 241 227 226
190 194 191 187 186 189 204 186 208 212 236 232 236 239 250 262 255 251 261 270 264 278 268 273 269 256 248 246 227 225 225 245 235 235 253 250 248 264 250 236 230 219 226
191 197 192 193 193 200 200 195 201 200 215 234 231 231 224 243 257 253 246 241 235 256 256 232 266 285 280 259 248 278 240 237 231 239 240 258 259 259 235 223 219 223 229
196 195 198 191 195 200 210 210 190 200 211 223 226 229 210 231 247 255 253 248 218 236 246 208 198 241 283 304 268 245 247 240 237 243 251 258 248 228 204 226 228 235 246
199 200 193 196 199 196 202 201 205 201 216 206 220 226 216 226 241 240 269 266 227 208 243 236 207 163 231 230 245 234 238 236 247 237 261 274 232 194 197 222 248 243 242
199 197 195 196 195 197 205 211 202 206 200 209 225 222 219 216 238 234 248 265 264 289 218 240 90 178 174 196 238 241 231 219 182 201 180 214 171 178 190 213 251 251 241
196 193 197 198 197 200 206 204 206 208 212 213 218 218 221 226 230 235 231 261 219 239 242 94 132 112 234 215 277 243 223 211 285 238 203 237 231 165 195 203 249 252 246
196 195 197 197 198 198 204 205 206 195 203 214 206 207 221 228 231 230 227 241 263 240 154 137 146 175 219 261 284 324 8 322 312 334 318 229 195 176 170 197 229 249 240
199 198 198 193 199 196 197 197 191 192 207 193 215 203 224 229 236 225 218 239 244 236 98 128 156 201 214 189 306 305 293 325 308 289 315 354 306 175 177 197 197 248 253
197 189 195 192 195 175 173 185 191 201 201 210 197 204 221 235 225 211 218 238 217 187 214 199 149 176 206 135 126 315 286 277 295 275 241 221 274 322 207 207 189 191 217
195 190 188 192 185 186 190 193 182 171 200 185 203 216 223 245 239 202 211 213 200 180 185 206 164 161 274 155 145 117 328 334 287 243 234 236 244 264 269 299 245 214 197
202 194 191 188 185 187 190 141 92 85 67 128 236 234 224 230 231 210 205 182 206 191 214 178 190 185 227 186 193 157 141 250 307 271 207 232 204 213 221 243 253 245 211
205 191 191 190 184 187 173 176 176 176 181 208 197 189 222 226 230 214 199 192 194 182 215 189 195 198 177 214 184 210 129 184 191 330 352 332 229 227 224 227 229 251 222
193 189 187 186 185 182 183 186 183 175 195 190 186 202 232 242 233 225 207 179 192 202 228 181 174 213 192 180 191 152 146 235 160 151 289 320 350 314 261 253 236 229 220
184 185 179 181 187 179 182 188 187 192 189 191 213 208 227 236 264 235 221 194 199 198 218 211 189 197 208 213 216 201 172 178 197 176 201 247 204 253 268 275 248 205 197